Flag for Canada Weather past 2 weeks in Saint-Jérôme, Quebec, Canada

Now
68 °F

Partly sunny.


Feels Like: 68 °F
Forecast: 60 / 73 °F
Wind: 5 mph from Northeast

Location: Montreal / Mirabel

Current Time: Aug 21, 2014 at 8:39:49 PM

Latest Report: Aug 21, 2014 at 8:00 PM


Visibility: 25 mi

Pressure: 30.04 "Hg

Humidity: 73%

Dew point: 59 °F

Location of Saint-JérômeLocation

Historic Weather in Saint-Jérôme — Graph

°F

Saint-Jérôme temperature yesterday

Maximum temperature yesterday: 79 °F (at 4:00 PM)
Minimum temperature yesterday: 54 °F (at 2:00 AM)
Average temperature yesterday: 66 °F

Past Weeks' High & Low Weather Summary

 TemperatureHumidityPressure
High84 °F (Aug 10, 4:00 PM)100% (Aug 8, 5:00 AM)30.16 "Hg (Aug 8, 5:00 AM)
Low48 °F (Aug 18, 5:00 AM)37% (Aug 8, 4:00 PM)29.67 "Hg (Aug 14, 12:00 AM)
Average65 °F76%29.94 "Hg
* Reported Aug 6 7:00 PM — Aug 21 7:00 PM, Saint-Jérôme, Weather by CustomWeather, © 2014

Note: Actual official high and low records may vary slightly from our data, if they occured in-between our weather recording intervals... More about our weather records

Advertising

Saint-Jérôme weather history for previous 24 hours

 ConditionsComfort  
Time TempWeatherWind HumidityBarometerVisibility
7:00 PM
Aug 21
68 °FOvercast.3 mph73%30.05 "Hg45 mi
6:00 PM70 °FMostly cloudy.5 mph69%30.06 "Hg45 mi
5:00 PM72 °FMostly cloudy.13 mph69%30.04 "Hg45 mi
4:00 PM72 °FMostly cloudy.10 mph69%30.03 "Hg25 mi
3:00 PM72 °FCloudy.7 mph78%30.03 "Hg25 mi
2:00 PM73 °FBroken clouds.9 mph74%30.03 "Hg15 mi
1:00 PM72 °FMore clouds than sun.10 mph73%30.05 "Hg25 mi
12:00 PM70 °FOvercast.7 mph78%30.05 "Hg25 mi
11:00 AM68 °FOvercast.9 mph83%30.05 "Hg15 mi
10:00 AM68 °FCloudy.6 mph78%30.05 "Hg25 mi
9:00 AM64 °FCloudy.7 mph88%30.06 "Hg30 mi
8:00 AM64 °FCloudy.7 mph83%30.05 "Hg30 mi
7:00 AM64 °FOvercast.6 mph83%30.04 "Hg25 mi
6:00 AM64 °FMild.5 mph83%30.03 "Hg25 mi
5:00 AM64 °FOvercast.5 mph83%30.02 "Hg25 mi
4:00 AM64 °FOvercast.3 mph88%30.01 "Hg25 mi
3:00 AM66 °FMostly cloudy.5 mph83%30.01 "Hg25 mi
2:00 AM66 °FMostly cloudy.6 mph83%30.01 "Hg25 mi
1:00 AM66 °FPartly cloudy.3 mph83%30.02 "Hg25 mi
12:00 AM66 °FPartly cloudy.3 mph83%30.01 "Hg25 mi
11:00 PM
Aug 20
66 °FPassing clouds.3 mph83%30.01 "Hg25 mi
10:00 PM68 °FPassing clouds.2 mph78%30.01 "Hg25 mi
9:00 PM70 °FPassing clouds.2 mph73%30.01 "Hg25 mi
8:00 PM72 °FPartly sunny.5 mph69%30.00 "Hg25 mi
Weather by CustomWeather, © 2014

See weather overviewHow to use our weather pages